EW4496 Weather Reports


time (UTC)temp
C
wind
direction
speed
KPH
gust
KPH
rain 1hr
cm
rain 24hr
cm
rain mn
cm
humidity
%
barometer
mb
20260902194501 24 295 1.6 14.5 0.00 0.00 0.00 50 1016.6
20260902193002 23 350 1.6 12.9 0.00 0.00 0.00 51 1016.7
20260902191601 24 4 3.2 11.3 0.00 0.00 0.00 52 1016.9
20260902184604 23 314 0.0 14.5 0.00 0.00 0.00 54 1017.0
20260902183102 23 268 0.0 9.7 0.00 0.00 0.00 54 1017.0
20260902181602 23 180 1.6 11.3 0.00 0.00 0.00 53 1017.0
20260902180130 23 340 0.0 8.0 0.00 0.00 0.00 53 1017.0
20260902174601 23 287 0.0 4.8 0.00 0.00 0.00 57 1016.9
20260902173101 22 281 1.6 6.4 0.00 0.00 0.00 58 1017.0
20260902171600 21 219 0.0 6.4 0.00 0.00 0.00 60 1017.0
20260902170005 22 260 0.0 6.4 0.00 0.00 0.00 61 1016.9
20260902164615 21 200 0.0 6.4 0.00 0.00 0.00 62 1016.7
20260902163115 20 296 0.0 6.4 0.00 0.00 0.00 65 1016.6
20260902161615 19 265 0.0 1.6 0.00 0.00 0.00 69 1016.8
20260902160115 18 80 0.0 3.2 0.00 0.00 0.00 72 1016.8
20260902154615 18 209 0.0 4.8 0.00 0.00 0.00 72 1016.8
20260902153115 17 207 0.0 4.8 0.00 0.00 0.00 74 1016.7
20260902151615 16 212 0.0 4.8 0.00 0.00 0.00 76 1016.6
20260902150015 15 165 0.0 3.2 0.00 0.00 0.00 77 1016.5
20260902144527 15 203 0.0 6.4 0.00 0.00 0.00 78 1016.4
20260902143018 15 173 0.0 3.2 0.00 0.00 0.00 80 1016.3
20260902141522 14 166 0.0 3.2 0.00 0.00 0.00 81 1016.4
20260902140018 13 188 0.0 3.2 0.00 0.00 0.00 82 1016.4
20260902134530 13 189 0.0 3.2 0.00 0.00 0.00 81 1016.3
20260902133023 13 209 0.0 1.6 0.00 0.00 0.00 82 1016.0
20260902131530 13 176 0.0 3.2 0.00 0.00 0.00 82 1015.8
20260902130144 13 174 0.0 3.2 0.00 0.00 0.00 82 1015.8
20260902124545 13 265 0.0 3.2 0.00 0.00 0.00 82 1015.7
20260902123053 13 205 0.0 3.2 0.00 0.00 0.00 82 1015.8
20260902121548 13 173 0.0 3.2 0.00 0.00 0.00 81 1015.7
20260902120046 13 173 0.0 0.0 0.00 0.00 0.00 82 1015.7
20260902114545 13 174 0.0 1.6 0.00 0.00 0.00 82 1015.7
20260902113047 13 178 0.0 3.2 0.00 0.00 0.00 81 1015.7
20260902111549 13 186 0.0 1.6 0.00 0.00 0.00 81 1015.6
20260902110047 13 207 0.0 4.8 0.00 0.00 0.00 81 1015.7
20260902104552 13 218 0.0 0.0 0.00 0.00 0.00 81 1015.8
20260902103044 14 218 0.0 0.0 0.00 0.00 0.00 81 1015.9
20260902101544 14 218 0.0 1.6 0.00 0.00 0.00 80 1016.0
20260902094544 14 220 0.0 1.6 0.00 0.00 0.00 80 1016.1
20260902093047 14 219 0.0 6.4 0.00 0.00 0.00 79 1016.1
20260902091559 14 245 0.0 3.2 0.00 0.00 0.00 80 1016.0
20260902090059 14 211 0.0 3.2 0.00 0.00 0.00 80 1015.9
20260902084610 15 262 0.0 6.4 0.00 0.00 0.00 80 1016.0
20260902083113 15 217 1.6 4.8 0.00 0.00 0.00 80 1016.0
20260902081513 15 247 1.6 8.0 0.00 0.00 0.00 81 1015.9
20260902080013 15 216 0.0 4.8 0.00 0.00 0.00 80 1015.8
20260902074513 15 233 1.6 4.8 0.00 0.00 0.00 80 1015.8
20260902073013 15 233 1.6 4.8 0.00 0.00 0.00 79 1015.8
20260902071528 15 274 1.6 6.4 0.00 0.00 0.00 79 1015.7
20260902070028 15 201 1.6 8.0 0.00 0.00 0.00 79 1015.8
20260902064530 15 216 1.6 6.4 0.00 0.00 0.00 80 1015.7
20260902063028 15 217 0.0 6.4 0.00 0.00 0.00 79 1015.9
20260902061539 15 205 0.0 3.2 0.00 0.00 0.00 79 1015.9
20260902060043 15 229 0.0 3.2 0.00 0.00 0.00 79 1015.9
20260902054549 16 250 0.0 3.2 0.00 0.00 0.00 78 1016.0
20260902053042 16 269 0.0 8.0 0.00 0.00 0.00 76 1015.8
20260902051535 16 255 0.0 8.0 0.00 0.00 0.00 73 1015.8
20260902050035 17 5 0.0 8.0 0.00 0.00 0.00 72 1015.8
20260902044552 17 342 3.2 17.7 0.00 0.00 0.00 70 1015.6
20260902043051 17 333 3.2 11.3 0.00 0.00 0.00 68 1015.5
20260902041550 17 326 3.2 19.3 0.00 0.00 0.00 66 1015.4
20260902040050 18 319 4.8 19.3 0.00 0.00 0.00 64 1015.1
20260902034551 18 311 3.2 16.1 0.00 0.00 0.00 63 1014.8
20260902033050 18 329 3.2 12.9 0.00 0.00 0.00 62 1014.6
20260902031549 18 319 4.8 16.1 0.00 0.00 0.00 61 1014.3
20260902030050 19 359 8.0 16.1 0.00 0.00 0.00 59 1014.1
20260902024550 20 349 6.4 17.7 0.00 0.00 0.00 57 1014.0
20260902023053 20 323 4.8 19.3 0.00 0.00 0.00 55 1013.8
20260902021549 20 345 3.2 12.9 0.00 0.00 0.00 54 1013.7
20260902020049 21 37 3.2 17.7 0.00 0.00 0.00 51 1013.5
20260902014550 22 8 1.6 20.9 0.00 0.00 0.00 47 1013.4
20260902013049 23 308 1.6 17.7 0.00 0.00 0.00 45 1013.3
20260902011553 23 341 3.2 16.1 0.00 0.00 0.00 43 1013.3
20260902004549 24 305 1.6 14.5 0.00 0.00 0.00 41 1013.1
20260902003048 25 311 3.2 14.5 0.00 0.00 0.00 40 1013.3
20260902001548 25 279 0.0 14.5 0.00 0.00 0.00 40 1013.2
20260902000051 25 310 3.2 11.3 0.00 0.00 0.00 39 1013.3
20260901234549 25 353 3.2 12.9 0.00 0.00 0.00 39 1013.3
20260901233100 25 345 1.6 11.3 0.00 0.00 0.00 38 1013.4
20260901231603 25 25 0.0 16.1 0.00 0.00 0.00 40 1013.5
20260901230104 25 311 1.6 17.7 0.00 0.00 0.00 40 1013.6
20260901224616 25 290 1.6 16.1 0.00 0.00 0.00 39 1013.8
20260901223103 25 299 1.6 16.1 0.00 0.00 0.00 40 1013.8
20260901221604 25 328 0.0 14.5 0.00 0.00 0.00 40 1014.1
20260901220004 25 298 3.2 11.3 0.00 0.00 0.00 40 1014.1
20260901214506 25 227 4.8 16.1 0.00 0.00 0.00 41 1014.3
20260901213002 24 321 0.0 12.9 0.00 0.00 0.00 44 1014.2
20260901211519 24 217 0.0 16.1 0.00 0.00 0.00 44 1014.3
20260901210017 24 263 3.2 19.3 0.00 0.00 0.00 44 1014.5
20260901204517 23 314 1.6 14.5 0.00 0.00 0.00 47 1014.6
20260901203017 23 337 0.0 11.3 0.00 0.00 0.00 48 1014.7
20260901201517 23 345 0.0 14.5 0.00 0.00 0.00 47 1014.8
20260901200018 23 352 1.6 11.3 0.00 0.00 0.00 48 1014.9